Wind_Speed
2 2 2 4 6 6 5 5 5 4 3 3 2 2 4 4 3 2 2 2 6 5 2 3 1 5 5 6 2 3 9 11 11 11 9 9 10 9 9 10 10 9 10 13 19 24 26 27 27 26 26 26 25 26 27 28 28 27 26 26 26 26 25 24 24 23 22 21 21 20 20 21 20 19 17 16 16 15 13 13 13 12 12 11 9 8
4 1 5 8 9 7 5 6 6 4 1 2 2 3 4 5 3 2 3 4 6 4 1 3 4 6 2 3 2 2 5 10 10 11 10 10 11 10 10 11 10 8 9 11 14 20 25 25 26 26 25 26 26 26 27 28 29 28 27 27 28 28 27 25 25 24 23 22 23 22 22 22 21 20 19 19 19 17 16 15 15 14 14 13 9 8
3 3 9 11 6 1 2 5 4 3 2 3 3 3 4 4 2 1 3 7 5 3 1 1 1 5 4 1 1 1 2 4 5 8 10 12 11 10 11 11 10 8 9 9 10 16 23 25 26 26 25 27 28 28 29 28 29 30 29 28 28 29 28 27 25 24 23 22 23 22 21 22 21 20 20 19 19 18 17 18 18 17 17 14 10 9
2 6 9 8 3 2 2 3 3 3 2 3 3 3 3 5 5 1 3 7 5 3 3 2 1 3 5 4 4 4 3 2 3 4 5 8 11 11 12 11 12 11 11 11 9 13 20 24 25 25 25 27 27 27 28 28 29 30 31 30 29 30 29 27 25 24 23 22 21 20 20 21 21 20 20 19 18 18 17 18 19 19 19 16 12 10
7 9 6 3 3 4 5 4 3 4 3 4 6 5 3 6 6 2 5 8 6 4 6 5 2 3 2 4 8 6 3 3 4 4 3 5 7 8 8 10 12 13 13 13 10 11 16 21 24 26 26 27 27 27 29 30 30 30 32 32 30 31 29 27 25 23 22 21 20 19 19 21 21 19 20 21 20 19 18 17 19 21 21 18 14 12
9 9 3 3 4 6 5 6 4 6 4 4 6 9 9 8 6 7 10 8 4 3 6 6 2 4 2 5 10 6 4 4 4 4 6 5 5 6 6 9 10 11 12 13 12 12 16 20 23 25 26 27 27 29 31 32 32 31 32 32 31 31 30 28 25 23 24 23 21 20 22 23 22 20 21 23 22 21 19 17 19 21 21 20 16 14
5 4 4 6 7 6 6 6 4 7 4 4 5 9 9 7 8 12 13 8 3 3 6 8 5 2 1 5 11 8 6 8 5 5 7 6 5 7 7 9 9 9 11 11 12 13 16 20 22 23 26 28 28 30 31 31 31 31 32 32 31 31 30 29 26 25 26 24 21 20 22 25 24 23 23 24 23 21 19 17 18 20 21 20 18 16
4 4 1 5 6 5 5 5 5 8 5 4 4 5 7 10 12 14 13 6 3 2 3 8 4 1 2 6 8 8 7 10 9 8 9 7 7 7 7 9 10 11 11 10 11 13 16 20 23 24 26 29 30 30 30 29 30 31 32 32 31 30 30 29 27 27 27 26 23 21 21 23 26 26 25 24 24 21 19 18 18 19 20 20 19 18
3 3 4 4 4 4 5 7 7 9 5 6 5 3 5 11 12 13 9 3 2 4 1 7 4 1 4 3 3 7 8 12 14 15 13 10 9 8 8 9 10 11 11 10 11 13 16 22 26 29 30 30 30 31 31 31 31 31 32 32 31 30 30 30 29 28 28 27 24 21 21 22 24 25 24 24 24 23 21 20 19 19 19 19 18 18
3 5 5 4 3 5 7 8 8 10 7 5 1 4 4 5 7 7 5 3 3 2 2 9 9 3 3 3 3 5 7 13 16 16 14 12 11 10 9 9 9 9 9 10 11 14 20 25 29 31 31 30 30 32 33 32 31 31 31 32 32 31 30 30 30 29 29 27 24 22 23 23 22 23 23 24 25 24 23 21 20 20 19 18 17 17
6 5 3 4 4 6 6 6 7 10 8 3 7 7 7 6 4 4 2 3 3 3 4 10 14 6 2 3 5 8 12 18 17 13 13 14 13 12 11 9 9 10 9 9 10 13 20 26 29 29 29 30 30 31 31 30 30 31 31 32 32 32 31 30 30 30 29 27 24 23 24 24 23 22 23 24 25 25 24 22 21 20 19 18 17 17
6 5 1 3 4 2 1 1 1 2 4 5 6 4 5 4 3 4 4 3 0 5 4 8 13 7 3 4 6 12 16 15 14 14 17 19 16 13 11 10 9 9 9 10 9 10 14 18 21 25 26 28 28 28 28 29 30 31 31 32 32 31 30 29 30 31 29 27 25 25 25 25 25 24 23 23 25 26 25 24 21 21 20 19 18 19
5 4 4 5 3 4 4 3 3 5 2 6 6 5 4 1 1 2 1 2 3 6 4 7 13 5 5 6 5 11 15 11 12 15 18 20 18 15 12 11 8 7 9 10 9 10 10 12 16 21 23 25 27 28 29 29 29 30 31 31 31 31 29 29 30 31 29 26 26 26 27 26 26 26 24 24 24 25 26 24 22 21 21 20 20 21
4 5 7 8 5 4 5 2 2 2 1 4 6 5 3 2 2 1 2 1 3 5 3 8 12 3 5 4 4 8 13 13 12 12 13 15 15 14 11 10 8 6 8 9 10 11 11 12 18 22 24 25 27 29 30 30 30 30 30 31 31 31 30 29 31 31 29 27 27 28 27 26 27 27 26 25 25 25 25 24 22 22 21 21 22 23
2 4 5 4 3 4 5 1 4 3 2 2 4 6 4 3 3 3 4 3 3 3 3 5 7 3 3 2 5 7 10 11 11 9 9 9 10 10 9 8 8 7 6 7 10 12 12 16 22 23 25 26 28 29 30 30 30 30 30 31 32 31 30 30 31 31 29 28 28 28 26 25 26 27 26 26 26 25 25 24 23 22 21 21 22 22
2 3 5 4 4 4 7 3 2 4 1 2 1 5 4 5 3 0 2 4 2 1 1 2 3 3 4 2 5 6 6 4 9 8 7 8 8 9 9 9 9 7 6 6 9 12 14 19 24 25 26 27 28 30 30 30 31 31 31 32 33 32 32 32 31 31 30 29 29 28 26 25 25 27 27 26 26 26 25 24 23 22 22 21 22 22
2 4 6 5 5 7 8 4 2 6 1 2 1 2 4 3 5 1 3 1 3 2 1 2 3 4 2 1 5 7 8 4 6 7 7 8 9 11 11 10 9 8 7 6 7 10 13 18 23 26 27 28 29 30 31 32 33 33 33 33 33 33 32 33 33 32 31 30 30 28 27 26 26 27 27 27 26 26 26 25 23 22 23 22 22 22
0 4 5 5 7 8 8 4 4 7 3 1 1 3 2 4 5 2 2 2 3 1 2 2 2 4 2 0 5 10 11 8 3 4 6 6 9 11 11 10 11 10 8 7 6 8 12 16 21 25 28 30 32 32 33 34 35 35 35 35 34 33 32 33 33 33 32 32 31 30 28 28 27 27 27 27 25 25 25 26 25 23 24 24 22 22
2 2 5 4 5 7 7 6 6 7 4 2 2 2 1 2 1 0 1 1 1 1 2 3 2 2 1 2 8 11 10 9 7 1 5 7 9 10 10 11 12 11 9 7 6 5 8 14 20 24 27 30 32 33 34 35 35 34 34 35 36 35 35 35 34 33 33 32 31 30 29 29 29 28 27 26 25 24 25 26 26 25 25 24 23 22
2 2 4 4 5 5 5 6 5 7 7 2 2 4 2 2 3 1 2 2 1 2 2 2 2 1 1 4 8 9 9 10 8 5 5 7 9 9 9 10 11 11 10 8 7 5 6 12 20 24 27 30 32 33 34 34 34 35 34 34 34 34 35 34 33 33 32 32 31 29 29 30 30 28 27 26 26 25 26 26 26 26 26 25 23 22
3 3 2 5 6 4 3 3 2 4 5 3 5 6 4 3 1 1 2 2 2 2 2 1 1 2 3 4 6 8 9 10 8 4 3 4 6 8 9 9 9 9 10 10 8 6 5 9 17 22 24 29 32 32 32 33 34 34 34 34 34 34 34 33 33 33 32 31 30 29 29 30 30 29 27 26 26 26 26 26 25 25 25 24 23 22
1 1 1 4 4 3 3 5 4 4 3 0 2 4 4 4 1 2 1 2 1 2 3 4 2 2 4 5 5 7 8 9 10 7 4 5 4 2 4 7 8 8 9 10 10 7 5 8 14 19 21 23 26 29 32 34 34 34 34 34 34 34 33 33 33 33 32 31 30 29 29 29 30 30 27 26 26 25 25 25 25 25 24 24 23 21
1 2 2 1 1 1 6 8 5 5 4 2 1 5 3 2 1 3 3 3 1 1 1 3 2 1 3 6 6 6 7 8 11 10 8 8 8 8 8 5 1 1 1 3 5 4 4 6 12 18 21 22 24 27 29 31 31 33 34 34 34 34 34 35 34 34 32 31 30 30 29 28 30 29 27 26 26 25 25 25 25 24 24 24 23 22
1 3 2 2 3 3 6 7 4 5 8 5 4 7 5 5 4 4 5 3 1 2 2 2 2 1 3 6 5 5 7 8 10 11 10 9 8 11 12 10 7 5 5 5 4 2 4 6 6 3 7 12 19 25 29 32 32 33 34 34 33 34 34 33 33 33 32 32 31 30 28 28 29 29 27 27 26 25 25 25 24 23 23 24 23 23
1 1 2 3 4 5 6 6 5 7 7 2 4 8 8 9 9 3 1 2 3 2 2 2 2 1 3 5 5 7 9 10 11 11 10 9 8 10 11 9 8 7 7 8 7 5 6 8 9 10 12 11 6 2 9 17 24 28 31 32 33 36 37 35 33 32 31 31 30 29 29 28 28 28 28 28 27 26 25 25 24 24 24 24 24 24
2 1 2 4 2 1 1 2 3 3 4 2 4 10 11 12 11 3 1 3 4 3 3 4 2 1 3 6 7 9 10 10 11 10 8 8 7 8 9 7 6 6 7 8 8 7 5 5 6 8 8 7 10 10 9 5 5 11 14 14 13 17 23 28 30 32 32 31 29 28 28 29 28 29 28 28 28 28 27 26 25 25 25 25 25 25
4 2 2 5 5 4 5 5 4 1 2 4 7 11 12 12 10 4 3 3 3 2 4 4 1 2 6 9 9 10 10 9 9 9 8 7 6 6 7 6 5 4 4 5 5 5 4 4 3 5 10 11 7 7 6 4 5 8 9 12 10 6 8 12 18 23 25 28 29 29 28 29 29 29 29 29 28 28 28 28 27 26 26 26 26 26
5 3 1 5 4 5 7 6 5 4 2 4 7 10 11 12 11 9 5 1 3 3 4 4 3 3 6 8 9 9 8 8 8 8 7 6 6 5 5 5 5 4 2 3 3 3 4 4 1 1 6 12 14 15 16 15 15 14 13 20 25 23 21 20 19 19 19 20 24 27 28 29 29 29 29 29 29 29 28 28 28 27 26 27 28 27
6 1 1 2 2 4 3 5 7 8 5 4 7 10 11 11 10 10 6 3 3 6 4 1 3 5 6 8 9 8 7 7 7 6 5 5 5 4 3 4 4 3 2 2 2 2 1 3 5 6 8 11 14 15 16 18 20 18 16 20 25 27 30 31 28 26 25 23 23 24 26 27 27 28 29 29 29 30 30 30 29 27 26 27 29 28
5 1 2 2 2 5 3 4 10 12 8 5 8 9 10 8 7 7 6 6 7 8 6 4 5 7 7 7 7 6 6 5 4 5 5 6 6 5 4 5 4 4 4 3 2 3 3 4 2 3 7 9 11 13 15 16 18 20 21 22 23 22 24 29 30 29 28 27 25 25 25 24 25 26 28 29 30 30 31 32 30 28 27 27 28 29
4 1 2 4 3 6 6 4 10 13 12 9 7 4 8 7 6 6 4 4 6 6 3 4 5 5 4 5 6 5 5 4 5 7 7 7 7 6 6 6 5 5 5 4 3 3 4 4 5 5 4 1 5 9 11 12 15 18 18 20 22 21 21 26 30 29 28 27 27 27 26 24 23 22 22 26 29 29 28 29 29 29 30 30 29 29
3 0 2 5 4 5 4 6 9 10 12 9 6 2 6 6 4 4 4 3 3 2 1 2 4 1 1 4 4 4 5 6 7 7 7 6 7 7 7 6 6 6 6 5 4 4 4 5 5 6 8 6 1 8 11 13 15 16 18 19 21 22 21 23 26 28 29 29 28 27 26 23 21 20 17 17 21 25 26 24 22 20 22 26 29 29
2 3 1 3 3 4 4 4 6 6 8 4 3 3 4 4 1 2 5 5 4 3 1 1 1 1 1 4 3 3 5 7 7 6 5 4 6 7 7 7 7 7 6 6 5 5 5 5 6 8 10 9 4 6 13 18 19 19 20 23 24 24 22 19 18 19 21 23 23 23 22 21 19 19 17 12 11 16 22 23 21 15 11 15 20 23
2 4 2 2 2 3 5 2 3 4 3 2 3 3 4 3 2 4 3 5 5 3 1 1 1 1 3 4 3 3 5 5 5 5 5 5 5 6 7 8 8 7 7 7 6 6 6 7 9 11 11 11 9 6 3 11 19 20 19 21 23 24 23 20 16 13 12 13 16 19 20 21 20 19 20 16 9 10 15 19 20 15 8 8 11 13
3 3 2 2 2 2 2 5 5 2 1 3 2 1 2 3 3 5 4 4 5 5 3 1 1 1 3 4 3 5 5 4 5 7 8 7 5 5 6 6 7 7 7 7 7 7 9 12 13 14 15 14 12 10 10 9 13 17 15 15 16 17 17 18 17 15 12 11 11 14 16 17 17 16 17 16 12 10 13 13 12 13 11 9 9 9
5 3 2 1 1 1 3 4 2 1 1 2 1 1 3 3 1 3 4 4 4 3 3 3 3 1 3 4 3 4 3 3 5 7 7 6 6 5 4 5 6 7 7 7 8 9 12 15 16 16 17 18 15 13 13 12 13 15 14 13 12 11 11 12 12 12 12 12 10 11 12 13 14 14 13 13 11 10 12 11 9 12 15 13 11 12
6 4 2 1 1 2 2 2 2 2 1 2 3 3 3 3 3 3 1 4 5 2 2 2 4 4 1 2 3 3 2 2 5 5 5 6 6 6 5 5 6 6 7 9 10 12 14 16 17 17 18 18 17 16 14 13 14 15 16 15 14 13 12 11 10 9 9 10 9 8 7 6 8 8 8 8 8 9 11 9 8 10 14 15 16 17
5 3 4 2 1 3 4 3 2 1 2 5 6 5 3 3 3 2 3 2 6 3 3 3 4 5 3 2 2 1 2 3 3 2 3 5 5 5 6 7 8 9 9 11 12 14 15 16 17 17 18 19 18 17 16 16 16 18 18 17 16 16 15 14 12 10 8 7 7 5 3 3 4 5 6 6 6 7 10 9 8 9 11 14 17 18
7 3 4 5 2 2 4 3 2 3 4 5 6 6 4 4 4 2 4 2 6 4 4 4 4 6 5 4 2 1 3 1 1 1 1 3 4 4 4 6 9 10 11 11 12 13 13 14 16 17 18 18 16 15 17 18 19 20 20 18 19 19 18 16 14 11 9 6 5 5 5 4 4 4 4 4 7 8 8 8 9 9 10 12 14 15
6 4 4 4 2 2 4 2 2 3 3 4 6 6 4 4 4 5 2 4 5 3 3 4 4 5 5 3 2 2 2 2 2 3 2 1 4 5 6 7 8 10 10 10 11 11 12 13 15 16 17 16 14 14 15 18 20 21 19 18 19 19 17 16 15 14 12 10 8 6 5 4 3 2 3 4 5 6 7 7 8 8 9 10 12 13
3 3 3 3 2 2 4 2 2 3 4 4 5 5 3 2 4 3 3 6 3 2 1 3 4 3 2 3 2 2 2 1 3 4 3 4 5 6 8 9 10 10 10 9 9 11 13 14 14 15 15 14 13 13 14 17 20 20 19 19 19 16 13 13 13 14 14 15 13 11 8 5 4 3 2 2 3 4 6 6 7 8 9 10 11 13
1 2 2 3 3 2 2 2 0 3 4 4 3 3 1 2 2 4 5 3 2 3 1 3 3 2 2 1 1 2 2 3 4 5 5 5 4 5 7 10 11 10 9 9 9 11 13 14 14 15 15 14 14 14 14 17 19 19 18 19 17 13 11 12 13 13 14 14 15 15 13 11 9 8 6 4 2 2 3 3 4 6 7 8 9 10
3 2 0 1 2 2 3 2 1 2 4 3 1 1 0 2 4 4 1 2 2 3 3 4 3 3 3 3 3 4 4 5 6 6 5 5 5 5 7 9 10 10 10 10 10 10 12 14 15 15 15 15 15 15 15 17 19 19 20 20 17 12 10 11 13 13 13 14 14 14 14 13 12 11 11 9 7 4 4 3 1 2 4 6 7 7
3 3 1 2 2 3 2 1 3 4 5 3 3 3 3 3 4 4 3 2 2 2 3 3 3 3 4 5 4 4 5 5 5 6 6 5 4 5 6 8 10 11 11 11 10 10 12 14 15 15 15 15 15 15 16 17 18 19 20 20 17 12 10 9 10 11 12 13 14 14 14 14 14 14 14 13 12 11 10 9 6 3 1 3 5 7
3 5 4 3 2 3 4 5 5 4 3 1 3 4 3 1 1 3 5 3 1 1 2 3 3 3 4 5 5 4 3 4 4 4 5 5 4 5 6 8 9 11 12 12 11 10 11 12 13 13 13 13 14 14 14 14 15 17 18 18 16 13 11 9 9 10 11 11 13 13 13 13 14 14 14 14 14 14 15 14 12 8 4 3 4 7
3 3 4 3 1 2 1 1 1 1 0 2 2 1 2 3 2 3 5 3 1 2 3 4 5 5 4 5 4 3 2 3 3 3 4 5 5 6 8 9 9 9 10 10 10 9 8 9 10 11 11 11 11 12 12 11 12 14 15 14 14 13 12 11 11 10 10 9 10 10 10 10 11 11 12 13 13 14 15 16 16 14 9 7 7 8
2 2 4 3 3 3 1 2 2 1 2 3 3 3 3 3 2 3 4 3 3 3 4 5 6 6 5 5 5 4 3 4 3 2 2 4 5 6 8 9 8 8 8 7 7 6 5 6 8 8 8 8 8 9 9 9 9 10 11 11 11 12 10 10 11 11 11 9 8 8 8 9 9 8 9 10 11 12 12 12 14 15 14 12 12 12
1 3 3 3 3 2 3 5 2 2 2 1 1 2 3 4 3 3 3 3 3 4 4 5 6 6 5 4 5 5 4 4 4 4 3 2 3 5 6 7 8 8 7 5 4 4 3 4 4 5 5 5 6 7 8 9 9 8 9 9 10 10 9 10 10 10 10 10 9 8 9 9 10 11 11 10 11 13 14 12 12 15 17 16 14 13
2 3 3 3 3 2 0 1 1 4 4 5 4 3 4 5 5 4 4 5 5 5 5 4 4 5 6 6 5 5 5 4 4 5 4 3 3 5 6 6 6 7 6 5 3 3 3 3 2 2 3 4 5 6 7 8 9 8 8 9 9 9 8 8 8 8 9 9 9 10 10 11 12 13 13 12 13 14 14 14 13 15 17 17 16 14
3 3 2 4 4 2 3 5 5 4 2 4 6 5 5 5 6 6 5 5 5 5 5 5 4 4 6 8 8 7 5 5 6 6 5 5 6 7 7 6 4 5 6 5 3 2 1 2 4 4 5 5 5 6 6 7 8 8 8 8 8 8 7 5 5 7 8 8 8 8 8 9 11 12 12 13 13 13 13 13 13 14 16 17 16 14
5 6 6 6 5 5 7 9 8 5 4 6 6 5 5 5 6 7 5 5 5 4 5 5 5 4 3 5 9 10 7 6 8 9 6 7 10 11 10 8 7 5 5 5 5 5 4 2 2 3 5 6 6 6 7 7 7 7 7 7 7 7 6 3 2 3 4 6 7 7 7 7 8 8 9 9 11 12 13 13 13 13 14 15 15 14
Wind_Direction
64 47 298 223 219 217 187 170 180 181 186 189 193 228 193 186 238 199 173 201 160 165 186 130 197 250 178 138 101 158 179 184 184 185 191 195 189 186 191 191 187 186 194 190 177 174 178 182 183 181 179 176 174 176 179 179 181 184 185 185 185 185 184 184 184 185 186 189 191 194 198 197 194 191 191 191 191 191 188 189 198 198 192 193 199 210
55 81 252 235 229 222 173 172 186 163 187 255 236 247 229 208 219 167 152 177 163 147 161 135 169 241 234 115 16 15 175 191 189 186 192 200 195 186 192 193 184 184 190 183 172 172 175 177 180 179 176 175 175 177 180 180 181 184 186 185 185 185 185 187 186 187 189 192 193 194 197 196 194 194 194 195 196 198 196 196 203 203 202 203 201 205
9 259 252 250 252 287 155 185 187 148 178 237 242 232 229 203 170 77 137 169 159 99 12 341 186 243 276 258 247 323 199 212 209 196 191 195 196 189 192 192 182 179 184 179 169 172 173 172 175 177 176 178 180 180 181 182 182 183 185 185 185 185 186 187 187 189 191 196 198 199 199 197 196 197 197 198 198 203 205 203 205 208 209 206 200 197
295 251 246 250 273 2 289 221 167 149 199 224 217 212 216 190 174 163 178 165 122 91 182 203 352 286 309 317 270 236 217 259 266 240 208 198 197 193 194 191 179 178 182 178 170 173 172 170 173 176 178 180 181 180 181 183 183 183 184 185 185 185 186 186 188 191 195 198 201 204 206 202 201 201 200 200 199 201 206 206 207 208 209 206 202 195
244 249 234 225 199 199 252 263 168 165 223 231 210 211 210 194 188 143 150 148 99 100 167 139 58 293 272 249 250 229 189 230 245 247 262 230 202 190 199 200 185 178 181 178 170 174 174 171 173 176 178 180 180 180 182 184 185 184 184 184 184 185 186 188 190 193 198 199 197 200 203 200 201 202 200 202 202 203 206 206 204 204 206 207 204 202
253 255 215 212 215 185 218 251 202 173 212 255 218 218 217 196 172 123 134 142 119 168 182 148 164 255 223 219 235 226 200 225 222 217 235 233 203 184 195 208 196 184 184 180 170 172 175 174 174 175 177 179 181 183 184 187 187 187 186 184 184 185 187 190 192 194 197 198 196 196 195 192 193 195 198 204 205 204 206 205 201 201 205 207 207 208
261 266 171 207 221 185 203 245 211 168 199 270 227 217 218 181 146 143 147 150 160 196 190 180 186 245 261 238 229 218 220 229 219 216 226 223 208 194 190 200 200 192 190 184 172 170 175 175 173 174 178 180 183 185 186 187 187 188 188 186 186 187 188 191 193 195 196 197 197 197 197 196 195 194 200 207 208 206 205 205 203 203 206 208 209 211
259 306 273 215 209 184 199 241 219 170 173 257 236 216 205 170 157 161 158 150 153 97 157 190 177 52 256 244 220 201 215 232 228 224 225 221 213 206 196 198 197 195 193 186 175 172 174 176 175 176 180 184 185 185 186 187 188 190 190 190 190 189 190 191 193 195 197 198 198 195 195 198 199 201 204 207 209 207 207 208 208 206 207 209 211 213
226 277 274 222 178 178 206 225 203 163 179 252 254 252 201 169 163 161 152 126 111 83 138 201 176 119 263 266 187 177 203 228 227 221 218 215 213 210 203 201 198 197 196 188 179 176 178 178 178 179 181 185 185 184 186 188 189 191 192 192 192 192 193 193 195 197 198 200 201 198 194 193 197 204 207 207 208 208 208 210 211 208 207 208 211 215
241 221 216 170 160 197 222 229 183 158 202 245 109 45 56 119 136 133 129 92 81 68 227 200 184 184 265 255 159 157 204 225 224 218 215 212 209 208 207 203 197 196 198 194 184 181 182 181 181 181 181 183 184 185 187 188 189 190 190 190 191 194 195 196 197 199 199 200 204 205 201 195 194 200 205 206 206 207 208 211 211 210 208 207 210 214
272 259 187 155 199 203 215 223 176 173 199 160 86 71 57 62 80 75 50 74 85 282 244 188 184 184 274 240 184 183 207 213 211 209 210 212 209 205 206 202 193 192 194 193 189 186 186 184 182 179 179 181 183 185 185 186 188 188 189 190 192 195 197 198 199 200 200 202 207 211 207 203 199 197 199 202 204 205 207 210 212 212 211 210 211 211
308 330 307 248 249 172 166 263 140 204 191 130 103 102 85 52 34 31 0 16 150 257 255 180 173 174 256 248 208 213 221 212 202 201 204 206 206 201 202 200 192 190 188 186 184 186 185 183 180 178 180 181 181 182 184 185 187 188 190 191 192 195 198 200 200 200 203 207 211 212 210 210 208 203 201 202 203 205 206 209 213 215 214 215 214 210
328 323 319 314 336 47 24 329 342 358 47 133 131 115 105 95 359 41 14 332 249 251 263 161 153 163 253 252 234 231 234 222 205 207 206 205 202 196 197 196 188 183 183 181 179 180 180 180 180 179 180 180 180 182 184 185 187 188 190 192 193 196 198 201 200 202 207 212 214 213 211 212 211 209 208 207 208 208 208 211 213 215 216 217 215 211
336 313 344 3 359 23 28 327 272 342 51 135 145 142 143 151 118 141 206 261 256 271 300 151 154 194 270 268 280 246 236 224 210 213 211 207 202 195 194 190 181 177 180 180 178 179 180 181 182 181 181 181 182 184 185 186 187 188 191 193 195 197 199 201 201 204 210 215 216 214 213 214 213 212 213 214 214 212 212 214 217 219 219 217 214 211
37 314 336 9 328 347 10 257 189 160 141 162 159 145 147 167 150 169 197 209 237 278 350 134 158 210 227 265 310 282 256 224 201 205 203 200 196 188 188 187 181 177 174 178 181 180 182 183 183 183 183 183 185 185 185 187 188 189 191 194 196 197 199 202 203 206 211 214 213 213 214 216 215 214 216 217 218 216 215 217 220 223 222 219 214 212
77 267 269 272 266 351 359 297 176 85 28 284 153 128 156 186 160 73 216 195 175 131 67 154 194 227 208 274 342 331 305 210 175 175 177 184 182 176 185 192 188 182 168 171 184 184 184 183 184 184 185 186 187 186 186 188 189 190 192 195 197 199 200 202 205 208 211 211 211 212 215 216 216 216 216 216 216 216 216 218 220 222 220 218 217 216
27 280 281 316 332 1 355 300 117 78 51 287 358 184 215 166 119 50 280 291 77 115 208 228 267 302 296 331 0 10 12 45 131 146 161 178 176 177 190 193 189 185 170 167 186 190 186 185 186 187 187 187 187 188 188 189 190 192 194 195 197 200 201 202 205 208 210 210 211 213 216 216 215 215 215 215 215 217 218 219 221 220 218 217 218 220
121 277 296 1 359 334 329 334 65 70 99 98 320 236 254 45 77 112 270 350 40 178 253 284 267 302 345 310 347 9 15 9 31 135 157 172 177 184 193 192 192 191 177 170 186 196 190 187 189 189 189 189 188 189 191 191 192 194 195 196 197 198 200 202 205 208 209 210 212 215 217 217 216 215 216 217 218 220 220 221 221 221 219 219 220 222
103 311 297 360 360 313 330 18 26 4 14 112 248 255 99 75 71 54 252 284 310 213 274 309 279 284 56 338 341 354 352 336 326 236 170 175 186 191 190 190 194 193 183 178 183 197 197 192 192 192 192 192 191 190 192 192 193 195 196 198 198 199 202 204 205 206 209 211 213 216 218 219 218 218 220 222 223 224 223 222 222 222 222 222 223 224
71 49 286 321 347 329 352 30 22 337 338 5 338 351 31 141 161 189 204 187 201 213 223 298 324 332 332 334 340 339 333 333 321 271 204 189 192 191 189 191 195 194 190 189 190 193 199 198 197 195 193 193 192 192 193 192 192 194 197 198 199 200 202 203 204 205 208 210 213 217 219 220 220 221 223 226 227 227 226 224 223 224 224 225 226 229
53 54 293 313 344 13 1 358 12 320 317 342 359 3 348 322 21 181 208 169 165 179 175 176 285 295 315 341 346 342 343 349 342 306 255 230 208 196 192 189 192 197 191 190 196 198 200 201 200 200 199 196 193 192 192 192 193 195 196 197 199 200 201 202 203 205 207 210 212 215 217 219 220 221 224 227 229 229 228 226 224 225 226 227 229 231
40 62 30 327 351 39 281 293 318 300 287 281 1 350 314 294 28 109 229 273 203 157 171 167 178 284 339 346 344 356 3 7 9 13 16 360 339 267 224 201 193 198 197 197 200 196 190 194 197 199 201 199 195 192 192 193 193 194 195 197 198 199 201 202 203 204 206 208 210 212 215 217 219 221 225 228 229 229 228 226 226 226 227 227 229 231
169 99 71 309 282 240 275 286 304 318 341 58 354 339 318 284 81 133 193 248 270 357 196 133 121 287 342 344 338 0 12 18 22 26 31 23 16 14 356 327 325 110 186 220 215 205 196 203 202 197 195 196 194 192 193 193 193 194 196 197 197 199 201 202 203 204 205 206 208 210 212 215 217 219 223 225 227 228 229 229 229 229 229 230 232 235
90 71 38 305 301 327 307 298 307 8 26 31 338 338 340 319 295 210 187 179 127 359 325 94 83 302 341 349 342 358 14 30 32 27 27 23 23 29 17 357 2 33 44 39 35 38 30 7 340 264 203 198 196 194 194 193 194 196 196 196 197 199 201 202 203 203 204 205 207 208 210 213 215 217 220 222 224 227 229 230 232 233 234 235 237 238
17 44 42 24 357 355 352 334 335 11 22 17 306 330 331 328 323 291 153 81 78 7 334 114 113 286 331 351 2 15 22 35 36 31 31 26 27 35 29 14 4 8 27 37 33 36 48 42 28 21 15 8 356 248 207 199 197 198 198 197 198 200 201 201 201 201 203 204 206 207 208 210 213 215 217 220 222 225 227 230 234 236 236 237 238 240
80 118 91 89 78 37 33 303 299 337 338 306 322 335 337 341 342 336 129 75 59 2 11 82 119 262 352 7 22 27 26 32 35 37 38 32 36 40 36 37 27 13 23 32 28 22 26 51 76 82 73 30 357 351 348 333 227 207 201 194 196 202 201 200 200 200 201 203 204 206 209 210 212 215 217 219 221 224 226 230 234 237 237 237 238 239
91 72 99 130 149 173 181 206 215 182 336 333 340 344 346 346 349 19 86 84 95 58 40 45 1 8 24 20 27 31 26 25 30 36 39 32 38 42 38 45 50 39 32 38 53 57 38 24 33 97 136 158 187 211 217 223 223 220 205 189 190 204 203 199 201 200 200 202 204 205 209 211 213 215 218 220 222 224 227 229 233 237 239 239 239 238
87 24 23 137 176 210 185 187 182 137 80 354 352 353 352 352 6 36 49 125 160 112 51 10 350 38 36 27 33 31 24 27 30 33 36 31 33 47 60 65 61 55 43 35 53 76 94 109 136 176 160 167 172 183 191 195 204 214 208 198 199 201 198 198 201 199 199 204 207 207 210 212 215 217 220 224 226 227 228 230 232 237 241 241 239 238
101 8 262 127 274 266 189 160 148 115 81 30 18 2 349 358 22 39 32 16 103 108 104 71 58 59 39 33 38 29 18 24 24 23 36 47 46 47 63 76 79 77 65 48 30 357 42 107 145 180 188 181 172 174 180 184 192 197 195 199 203 200 196 196 199 199 199 204 208 210 211 214 217 220 224 227 229 229 229 230 233 236 239 239 237 237
102 298 264 85 2 319 353 135 138 114 93 67 40 3 329 342 28 42 37 45 75 99 127 132 86 61 40 39 37 15 360 4 17 35 50 61 64 62 58 54 61 67 57 41 5 340 356 32 65 191 197 186 171 166 169 173 181 186 188 193 196 196 196 195 195 197 197 198 202 208 211 213 215 220 225 227 229 230 230 230 232 235 237 239 239 238
79 311 300 73 52 326 343 102 130 117 109 103 79 3 307 327 13 18 19 49 68 83 133 135 91 62 42 51 35 0 354 14 41 53 54 53 54 60 65 54 36 42 51 49 37 17 12 25 23 0 342 253 182 164 155 158 166 174 180 183 183 190 199 197 193 195 197 196 199 204 208 209 209 214 223 229 230 230 231 231 231 234 236 238 241 243
73 54 344 61 70 310 338 93 119 113 102 93 75 13 319 338 6 1 357 9 41 61 136 106 79 19 27 78 48 1 15 36 39 39 43 51 51 48 53 52 39 38 44 44 42 38 30 33 32 21 17 14 166 169 159 152 150 155 161 164 170 182 195 198 193 194 197 198 198 199 201 204 205 207 219 237 236 227 226 227 229 236 244 242 241 244
104 104 52 72 85 290 302 115 136 112 88 64 7 347 309 306 2 35 11 353 356 25 71 95 126 240 103 88 72 23 33 38 34 27 23 42 57 50 40 37 36 36 36 33 28 34 39 40 42 40 32 28 47 165 171 161 151 152 157 159 162 169 179 188 189 187 191 195 195 195 197 199 201 201 205 227 248 233 221 217 218 230 259 257 243 240
87 100 129 128 111 271 293 26 83 71 74 255 297 339 310 301 73 85 36 341 349 20 93 152 188 186 94 95 106 85 62 41 31 28 21 25 45 48 36 27 24 22 21 20 20 23 30 38 47 48 40 30 30 37 99 144 148 152 156 154 152 155 162 170 174 173 176 181 186 193 196 196 197 199 199 206 233 250 232 214 203 202 220 245 234 227
87 90 126 118 98 256 322 41 60 59 200 224 253 4 321 321 47 75 47 351 355 4 354 347 352 94 105 110 119 105 91 66 45 35 26 22 27 39 39 30 25 22 18 16 15 19 30 39 44 43 38 32 36 47 52 83 126 139 142 143 145 148 156 164 171 175 178 174 179 189 191 191 196 202 205 208 219 246 251 231 197 187 200 220 226 219
127 125 137 118 90 40 20 50 102 191 250 248 244 217 225 257 331 51 19 333 333 346 325 309 299 275 114 110 124 131 126 85 56 38 20 15 19 30 43 44 39 32 25 23 23 27 37 45 48 48 47 45 47 55 60 71 99 113 114 119 128 132 143 158 168 175 181 183 187 195 194 194 200 205 211 218 222 236 251 245 214 208 217 223 233 235
129 131 110 56 108 116 78 53 83 68 351 253 244 240 207 204 204 146 143 284 284 261 224 249 265 258 194 125 150 168 161 90 58 33 4 5 21 32 43 50 49 41 35 36 40 45 50 56 60 61 63 64 61 60 64 75 93 102 101 103 107 107 110 118 121 128 149 163 169 176 182 191 203 204 203 205 203 210 226 226 213 218 222 218 225 234
97 126 137 121 93 102 98 79 74 99 219 225 233 246 222 201 221 163 123 279 280 250 183 185 229 245 234 211 219 182 81 68 66 27 347 357 18 34 45 48 49 48 47 47 51 53 56 62 69 71 73 74 72 72 76 81 87 90 91 95 100 103 100 95 94 106 122 130 142 163 180 193 208 209 201 204 213 218 222 219 210 212 215 215 222 231
58 63 106 98 60 76 105 116 167 195 224 230 233 249 242 205 203 104 69 303 264 232 177 171 212 238 227 215 223 102 80 61 211 208 289 355 16 30 52 61 60 59 58 58 61 61 61 67 75 77 77 74 72 76 84 88 86 82 78 81 89 93 95 92 93 107 119 119 140 178 183 164 171 179 175 200 231 238 235 231 227 226 226 226 231 236
49 32 56 77 77 103 109 124 202 213 240 238 230 247 249 196 148 88 41 269 242 207 170 162 192 232 225 191 146 130 155 186 177 179 187 62 54 60 70 70 64 61 59 60 67 75 79 78 74 69 64 62 63 70 78 83 82 76 71 74 78 80 86 94 101 108 115 118 124 138 141 121 102 101 129 159 196 220 229 233 235 238 238 238 239 241
46 37 65 102 110 97 102 119 243 256 249 232 235 259 258 148 110 108 222 237 201 157 171 150 160 205 207 167 154 166 192 167 128 137 119 80 77 72 70 71 71 68 63 61 67 77 79 75 68 61 55 53 57 62 69 76 74 68 65 66 65 64 72 88 98 103 107 109 108 105 103 98 85 83 118 156 182 215 228 230 231 232 235 238 239 240
85 39 49 89 90 90 109 115 338 285 252 211 228 289 317 124 170 215 225 232 130 128 100 83 106 116 122 143 110 94 115 111 107 107 95 91 99 85 74 78 79 73 69 69 69 72 75 72 66 61 55 52 57 60 67 72 68 62 59 55 48 51 66 78 86 92 98 103 105 101 99 97 90 83 82 86 113 194 211 219 228 226 226 232 239 241
154 139 10 153 142 110 76 68 64 265 248 206 146 346 37 163 207 218 205 27 59 113 100 79 88 110 113 96 74 91 104 99 99 103 102 103 105 93 87 90 86 78 73 71 69 72 78 75 67 61 56 54 57 61 65 67 61 54 50 42 38 51 74 78 79 83 88 94 98 98 98 98 95 88 83 80 81 81 68 53 23 243 225 227 233 234
150 140 178 223 189 119 102 181 198 213 244 227 157 176 210 209 206 182 126 61 40 90 101 92 93 118 132 124 113 109 103 97 107 115 111 106 105 96 92 93 93 88 81 76 76 80 83 78 69 63 59 55 54 56 59 60 57 51 45 38 39 54 72 76 75 76 77 80 84 87 91 93 92 89 84 79 75 69 62 58 56 57 133 194 194 190
201 180 167 177 183 156 174 209 215 221 262 281 148 174 190 178 182 140 117 105 103 119 114 108 109 120 131 126 120 111 102 108 116 113 111 113 111 106 104 98 94 92 86 80 80 80 79 76 72 65 60 54 50 50 50 52 54 49 41 37 43 52 60 65 67 68 70 73 76 80 83 83 82 81 77 74 71 65 60 57 57 61 72 98 134 152
229 176 131 112 134 150 150 240 183 140 113 58 71 100 126 104 97 105 102 107 176 168 130 127 136 145 145 135 128 124 132 138 123 105 112 117 111 115 118 110 100 99 95 87 84 83 79 75 71 67 62 54 47 44 41 41 47 45 38 38 44 48 51 56 58 60 66 71 73 72 70 68 67 66 65 66 64 63 61 56 53 57 68 80 93 112
270 127 95 88 104 104 62 275 259 182 175 138 91 60 67 82 81 101 114 135 175 150 129 134 141 144 149 150 149 153 161 157 144 130 122 120 122 130 129 120 110 104 95 83 80 85 83 71 63 61 59 53 44 36 31 30 35 35 31 33 40 42 46 52 57 61 65 68 68 65 61 59 58 56 57 59 59 64 70 65 57 57 66 81 93 101
222 116 98 90 96 120 215 238 266 347 326 290 100 115 122 107 91 89 108 128 129 110 112 128 136 143 154 160 156 158 167 172 167 173 187 172 154 152 145 136 128 117 101 83 67 61 59 61 60 53 45 40 31 20 16 17 20 17 14 18 25 30 39 49 56 62 66 67 67 67 67 69 69 66 67 67 66 70 76 80 77 71 70 81 93 98
148 124 137 117 89 72 206 221 42 31 357 320 296 247 186 150 129 107 97 103 105 101 103 104 115 150 169 170 159 155 169 193 195 183 190 206 202 191 183 167 149 141 134 120 89 52 32 20 4 355 356 358 359 360 0 5 9 7 4 6 7 10 25 43 53 59 65 69 73 74 73 73 72 70 71 73 74 74 73 77 84 86 84 86 93 96
131 144 146 110 109 156 205 189 169 148 183 245 243 224 203 171 136 118 111 114 117 127 130 108 87 114 155 165 167 165 170 196 202 190 188 210 219 215 211 208 196 177 165 156 156 161 95 1 333 321 325 329 334 341 345 349 354 357 359 3 5 4 7 22 42 56 66 71 74 75 73 71 71 71 72 74 77 79 78 75 78 87 90 91 93 96
159 171 169 151 165 211 211 191 175 148 162 207 212 201 197 172 134 131 146 150 142 148 144 123 105 103 123 156 171 173 175 187 192 188 190 212 222 222 222 227 229 217 196 190 195 194 192 213 283 304 323 330 328 325 325 326 329 333 343 355 5 10 8 2 14 49 67 72 74 77 77 76 75 73 72 78 83 85 87 87 82 81 84 87 89 90
Height
772 783 788 787 786 783 784 785 785 786 788 791 795 799 802 808 810 801 798 794 789 801 807 805 810 804 798 801 799 797 797 798 799 800 801 801 800 800 801 801 800 800 799 797 800 802 804 806 808 810 812 814 816 818 819 820 822 823 825 826 828 830 833 834 835 837 838 839 840 842 843 844 845 847 848 849 850 851 852 853 854 855 856 857 857 857
776 789 789 781 778 779 782 783 782 785 788 789 793 797 799 804 805 797 796 796 789 801 810 806 808 806 801 804 803 798 799 799 798 799 801 800 799 799 799 799 799 798 797 797 799 801 803 805 807 809 811 813 815 817 819 819 820 823 824 826 827 830 832 833 835 836 837 839 840 841 842 843 845 846 847 848 849 851 852 853 854 855 856 856 857 857
787 790 783 774 775 779 782 782 782 786 789 791 793 796 800 801 801 799 797 794 792 804 816 814 812 809 803 802 802 801 801 799 797 795 796 797 797 798 797 797 797 798 797 797 799 800 802 804 806 809 810 811 813 815 817 818 820 822 823 825 827 829 831 832 834 835 837 838 839 841 842 843 844 846 847 848 849 850 851 852 853 854 855 856 857 857
795 786 775 772 775 780 783 782 785 787 789 792 794 796 800 798 799 805 802 797 798 807 815 815 815 812 807 803 800 799 800 799 798 796 793 793 794 794 794 793 794 796 797 798 799 798 800 803 805 807 809 810 813 814 816 818 819 821 822 824 826 828 830 831 833 835 837 838 840 841 842 843 844 845 847 848 849 850 850 851 852 853 855 856 857 857
789 776 769 771 775 778 782 784 786 790 793 792 790 791 794 793 794 798 800 799 803 811 810 811 821 817 809 808 803 796 798 800 798 796 795 793 791 791 792 791 791 792 793 795 798 798 798 801 803 805 807 809 811 813 814 816 818 819 821 823 825 827 829 830 832 834 836 838 840 841 842 843 844 845 846 847 848 849 850 850 851 852 854 855 856 857
783 770 768 773 775 777 782 784 784 788 792 791 785 780 781 786 791 794 799 802 813 823 811 809 830 826 809 810 807 798 800 801 798 797 795 794 792 791 792 792 790 790 789 791 794 795 797 799 801 803 806 808 809 811 812 814 816 818 820 822 824 826 827 830 831 833 835 837 838 839 840 841 842 844 844 845 846 847 849 849 850 852 853 854 855 856
776 768 768 773 775 777 782 783 781 780 790 793 779 769 772 780 790 796 798 804 817 822 806 800 821 829 817 810 804 799 802 801 798 798 794 793 793 790 790 790 789 790 789 789 791 792 795 797 799 801 804 805 807 809 811 813 815 817 819 821 823 824 826 828 830 832 834 835 837 838 839 840 841 842 843 844 846 847 848 849 850 851 852 853 855 855
771 768 769 771 774 779 783 783 776 774 787 788 768 762 771 778 788 793 794 802 808 809 808 802 808 824 824 808 798 799 804 803 799 798 794 792 792 790 788 787 787 788 787 788 790 790 792 794 796 799 801 803 805 807 810 812 814 816 817 819 821 823 825 827 829 831 832 834 836 837 838 838 839 841 842 843 845 846 847 848 849 850 852 853 854 855
767 770 770 769 775 781 779 774 768 770 781 776 760 762 768 773 782 786 791 801 803 808 821 814 807 823 824 804 796 799 805 805 798 793 791 789 789 788 787 785 784 785 784 785 787 788 790 791 793 795 798 801 804 805 808 810 812 814 816 818 820 822 824 826 828 830 831 833 834 836 837 838 839 840 842 843 844 846 847 848 849 850 851 852 853 854
766 764 763 766 773 774 768 763 761 768 773 764 759 767 771 776 782 787 795 801 806 814 821 815 810 822 821 806 804 807 807 801 789 785 785 784 786 785 784 784 783 783 783 783 784 785 787 788 790 793 796 800 802 804 806 808 810 813 815 817 819 821 823 825 827 828 830 832 833 834 836 837 838 840 841 842 844 845 846 847 848 849 850 851 852 853
764 756 757 762 764 761 757 758 758 761 761 757 764 775 783 788 788 794 798 799 815 820 808 804 805 813 815 805 802 799 787 779 776 780 782 780 781 782 781 781 780 780 781 782 783 783 785 787 789 792 795 798 800 803 805 807 809 811 813 815 817 820 822 824 826 827 829 830 832 833 834 836 837 838 840 841 842 844 845 846 847 848 849 850 851 852
764 760 761 757 754 754 755 758 758 757 756 759 771 783 796 806 807 816 816 813 828 822 797 795 800 812 818 800 789 781 765 763 769 773 775 774 776 777 778 778 777 778 779 780 782 783 785 787 789 791 794 796 799 802 804 806 808 810 812 814 816 818 821 822 824 826 828 829 830 832 833 835 836 837 838 839 841 843 844 845 846 847 849 849 850 851
767 765 764 757 752 754 761 765 764 761 760 764 776 788 807 824 830 837 836 831 833 814 793 795 799 813 814 787 775 773 763 763 765 763 765 767 770 773 775 775 775 776 777 778 781 782 785 786 788 790 793 795 798 800 802 804 806 808 810 812 815 816 819 821 823 825 827 828 829 830 832 833 835 836 837 838 840 841 843 844 845 846 847 848 849 850
779 771 765 763 759 755 762 772 772 770 767 768 777 789 807 823 834 842 841 834 825 804 791 793 798 808 800 776 769 767 759 758 758 758 761 763 767 770 772 773 774 775 775 776 778 780 782 784 786 788 791 793 795 797 800 802 804 806 808 811 813 815 817 819 821 823 825 827 828 830 831 832 834 835 836 837 838 840 842 843 844 845 846 847 848 849
798 792 776 771 770 762 762 767 767 767 767 767 768 777 792 800 812 826 828 823 817 807 801 799 801 805 793 775 767 760 753 751 753 757 758 760 765 768 771 773 774 775 775 775 776 777 779 781 783 786 788 791 793 795 798 800 802 804 806 809 811 813 815 817 820 821 823 825 827 829 830 831 833 834 835 836 838 839 840 842 843 844 845 846 847 848
802 798 777 769 767 763 765 762 757 762 772 771 766 774 784 782 786 799 802 799 801 809 814 808 798 790 779 768 761 758 754 749 751 756 759 762 764 766 771 773 773 774 774 774 776 776 777 778 781 783 786 788 790 793 795 797 800 802 804 806 808 810 813 815 818 820 822 824 826 827 829 830 832 833 834 835 837 838 839 841 842 843 844 845 846 847
803 795 774 768 765 760 765 762 755 763 776 775 772 776 774 766 774 793 798 792 795 807 812 805 795 783 775 770 763 762 762 757 756 759 761 763 763 766 770 770 771 773 772 773 774 774 775 776 779 781 783 785 788 790 793 794 797 799 801 804 806 809 811 813 815 818 820 822 824 826 827 829 830 831 833 834 835 837 838 839 841 842 843 844 845 846
800 797 779 774 774 763 759 758 754 757 767 776 777 772 766 766 775 789 800 802 805 810 807 802 801 795 789 783 773 770 773 770 766 763 763 764 764 766 768 767 769 769 769 771 772 772 773 774 777 778 780 782 784 787 790 792 795 797 799 802 804 807 809 811 813 816 818 820 822 824 825 827 829 830 832 833 834 836 837 838 839 840 842 843 844 845
792 798 787 776 780 771 759 762 767 763 760 768 772 765 767 784 792 794 801 807 811 813 810 806 804 800 799 797 788 785 785 781 774 769 766 767 766 766 766 766 766 766 767 770 772 773 773 773 775 776 778 781 782 785 787 790 793 795 798 800 802 804 806 809 812 814 816 818 820 822 824 826 827 829 831 832 833 834 835 836 837 838 840 841 842 844
786 799 797 779 776 775 770 775 789 788 772 765 768 767 769 779 788 792 794 797 804 811 813 809 806 805 805 802 796 793 788 784 780 773 768 766 765 764 764 764 765 765 767 769 771 773 772 772 774 775 777 779 781 784 786 788 791 793 796 799 800 803 805 807 810 812 814 817 819 821 822 824 826 827 829 831 832 833 833 834 835 836 838 839 841 842
785 798 803 788 778 785 790 789 794 798 790 780 781 785 784 780 780 784 786 786 791 800 807 808 811 814 806 796 795 793 787 783 780 774 770 767 764 763 762 763 764 764 765 767 769 771 772 772 773 775 777 778 779 782 784 787 789 791 794 796 798 801 803 805 808 810 812 815 817 819 821 822 824 826 828 829 830 831 832 833 834 835 836 837 839 840
788 796 803 800 794 798 799 790 786 789 788 787 788 791 792 788 785 791 794 787 782 788 796 800 810 818 805 793 793 791 786 784 780 776 774 771 769 767 765 763 763 764 765 766 767 769 771 772 773 774 776 778 779 780 782 784 786 789 792 794 796 799 801 803 805 808 810 812 815 817 819 821 823 825 826 828 829 830 831 832 833 834 835 836 837 838
784 793 800 803 804 805 798 786 785 785 779 779 784 785 787 788 790 796 797 787 780 787 790 789 804 816 804 794 794 791 787 785 782 780 778 777 775 774 773 769 766 767 767 768 768 769 771 772 772 772 773 776 777 778 781 783 785 787 789 792 794 796 798 801 803 805 808 810 812 814 817 819 821 823 825 826 827 828 830 831 832 833 834 835 836 837
783 796 802 803 804 803 796 786 782 781 779 784 787 783 784 789 788 786 785 779 783 796 794 790 807 817 803 794 794 791 787 785 783 782 781 780 779 779 781 780 775 772 771 771 771 771 773 775 775 775 776 777 777 777 778 780 782 785 787 789 792 794 796 799 801 804 806 808 810 812 815 817 819 821 823 824 826 827 828 830 831 832 833 834 835 835
789 800 805 810 814 812 812 808 797 789 790 796 796 787 784 786 784 780 778 777 788 805 804 800 815 820 804 796 795 791 790 788 786 784 783 783 783 782 785 786 783 780 778 777 776 774 774 775 778 781 782 783 783 782 781 781 782 784 786 788 790 791 794 797 799 802 804 806 809 811 813 815 818 820 821 822 824 825 827 828 829 831 831 832 833 834
790 799 802 814 825 831 839 837 819 806 804 801 797 791 787 787 786 783 779 782 796 811 812 811 820 818 805 799 798 795 794 793 789 787 785 785 786 785 785 786 786 785 784 783 781 780 778 776 777 779 780 784 787 787 787 787 787 787 789 791 793 794 795 796 798 800 802 805 807 809 812 814 815 817 819 820 822 823 825 826 828 829 829 830 831 832
791 798 798 805 814 819 826 823 811 807 810 807 801 796 793 792 791 785 785 795 805 811 816 818 818 815 810 806 803 801 799 797 793 790 788 788 788 787 786 785 785 786 786 784 782 782 783 783 781 778 776 779 782 784 786 787 789 790 790 792 795 797 799 800 801 801 802 804 805 807 810 811 813 815 817 819 820 822 823 824 826 827 827 828 829 830
792 800 799 801 803 802 803 804 803 805 809 809 807 805 802 799 796 797 799 802 802 807 819 820 814 815 814 809 806 805 801 799 796 793 791 789 788 787 787 786 786 787 788 786 782 781 781 783 784 782 779 778 779 780 781 782 785 787 789 791 791 792 794 798 800 800 802 804 805 806 807 809 812 814 816 817 819 820 821 822 824 825 826 827 827 828
793 802 801 800 800 797 797 799 802 805 809 812 812 813 812 806 804 809 810 805 800 808 821 820 814 815 814 808 808 806 802 800 798 794 792 790 787 786 787 787 787 788 788 786 784 782 780 780 780 780 779 778 777 778 778 779 781 783 786 789 790 789 788 790 794 797 798 800 803 805 806 808 811 812 814 816 817 818 819 820 822 823 824 825 825 826
793 799 798 799 800 796 796 800 802 803 809 814 814 816 817 812 807 809 809 806 804 810 816 816 816 815 811 809 809 806 802 800 796 793 793 793 792 790 788 788 788 788 788 785 783 782 779 777 776 776 775 775 776 777 777 778 779 780 781 784 788 791 791 789 791 793 795 797 800 803 805 807 809 811 812 813 814 815 816 818 819 821 822 823 823 824
793 799 798 798 802 801 799 802 803 803 808 815 817 818 818 814 809 808 809 808 809 814 815 814 816 816 811 809 809 806 803 800 797 797 796 796 796 794 792 791 789 788 788 786 783 781 779 777 776 776 775 776 777 777 778 778 779 779 780 781 784 790 794 792 790 791 794 796 797 800 803 805 807 809 811 812 812 813 814 815 817 819 820 820 821 822
790 799 799 799 808 810 803 806 809 806 809 817 821 822 821 818 815 813 812 810 810 814 814 811 814 817 813 809 810 808 805 804 803 802 800 799 798 797 796 794 791 790 789 788 785 783 781 780 778 778 778 778 778 778 777 777 778 779 779 780 782 787 792 794 791 790 792 793 795 797 800 803 805 806 809 812 813 811 810 812 814 816 818 818 819 820
790 796 800 805 813 812 806 809 809 806 815 826 826 824 822 819 817 816 813 811 809 809 811 811 813 814 810 810 812 812 809 808 808 806 804 803 800 799 798 796 794 793 791 790 788 786 784 783 781 780 781 780 779 778 777 776 777 778 778 778 780 783 788 793 793 793 794 793 794 796 798 801 803 804 807 811 814 812 808 807 810 814 816 818 818 818
793 794 800 807 811 812 810 809 810 818 833 835 825 820 820 817 816 817 818 816 812 809 810 812 811 809 809 811 814 814 813 812 810 808 806 805 803 802 801 799 797 796 794 793 791 788 787 785 784 783 783 783 782 781 780 779 778 779 780 780 780 782 785 789 792 795 797 796 796 797 798 800 802 804 805 807 811 814 811 808 807 810 815 818 817 816
793 794 800 806 809 811 810 812 824 839 840 828 817 815 815 816 816 817 818 816 812 811 812 812 811 809 809 812 812 814 815 813 811 809 808 806 805 805 804 802 800 798 797 796 794 792 790 789 788 787 787 787 786 784 783 783 781 781 783 783 783 784 785 787 790 794 797 798 798 799 799 799 801 802 803 803 807 812 814 811 808 808 811 814 815 815
790 793 799 804 808 814 818 823 833 839 830 820 818 815 812 815 816 817 819 816 811 812 814 813 811 809 808 811 812 813 814 812 811 811 810 809 808 806 806 805 803 801 800 799 797 796 794 792 792 791 791 791 790 788 787 786 784 784 785 785 786 787 788 790 792 794 796 798 799 800 800 799 800 800 801 802 805 808 812 813 810 809 808 810 814 816
787 792 797 804 810 818 828 833 833 832 831 828 822 815 811 813 814 815 821 818 809 808 812 812 812 809 808 811 811 811 812 813 816 816 813 811 810 808 808 807 805 804 802 800 800 799 797 796 795 794 794 794 794 793 791 790 788 787 787 787 788 789 791 792 794 796 797 798 799 800 800 800 801 801 801 802 804 806 809 810 810 809 808 809 813 816
786 790 795 804 813 817 826 835 838 839 838 828 817 809 806 808 808 808 816 817 808 803 807 810 811 810 810 811 811 811 812 814 819 821 816 813 812 811 810 809 807 806 804 803 802 801 800 800 798 798 797 797 797 798 796 794 793 791 790 790 790 791 793 794 796 797 798 799 799 800 801 801 802 802 802 802 804 806 807 808 808 809 809 810 812 813
790 793 793 801 811 815 819 829 836 836 828 817 810 806 804 805 804 806 817 820 807 800 803 806 808 809 809 810 811 812 814 815 819 822 817 814 814 813 812 811 810 808 807 806 805 804 803 803 802 801 800 799 800 800 799 797 796 794 794 794 793 793 793 795 798 799 798 799 799 800 801 801 801 801 801 802 804 805 806 806 806 807 808 809 810 810
793 796 797 803 812 816 819 825 829 826 818 811 807 804 803 802 801 813 828 821 802 798 802 803 805 806 806 808 810 812 815 816 817 818 816 814 815 814 814 813 812 811 810 808 807 806 805 805 805 804 803 803 803 803 802 800 799 798 798 797 796 796 796 798 800 801 800 800 799 799 800 801 801 802 801 802 803 804 805 804 804 805 805 806 806 807
800 802 806 811 816 820 822 826 829 822 812 806 803 801 800 802 808 822 826 809 795 798 801 800 803 805 804 807 810 811 814 815 814 815 815 814 815 815 815 815 813 812 812 811 810 808 807 807 807 807 806 807 806 805 805 803 802 802 802 801 800 800 800 801 802 803 803 802 801 801 801 801 801 802 802 802 802 802 803 803 803 803 803 803 804 804
805 808 813 815 819 824 824 826 830 824 809 800 801 800 799 807 815 816 808 798 796 799 799 799 803 805 805 807 810 811 814 815 814 815 815 815 816 816 816 815 814 814 813 812 811 810 809 809 809 809 809 809 808 808 807 806 805 805 805 805 804 805 804 804 804 804 804 804 804 804 803 803 803 803 804 804 803 804 804 803 802 802 801 802 802 801
802 808 815 816 818 824 828 828 830 823 808 799 801 803 802 808 810 803 799 799 799 797 799 802 804 805 806 809 811 813 814 814 815 816 816 816 816 816 816 816 816 816 815 814 813 813 812 811 811 811 812 811 810 810 809 808 807 807 807 806 807 807 807 806 806 805 805 805 805 804 804 805 805 805 806 806 806 805 804 802 801 801 800 800 800 800
800 806 813 814 812 818 824 824 818 811 804 800 801 802 801 802 800 797 798 801 799 798 801 803 804 807 808 809 811 814 814 815 816 816 817 817 817 817 817 817 817 817 817 816 815 814 814 813 813 813 813 813 812 812 811 810 810 809 809 809 809 809 808 808 807 807 806 806 806 805 806 806 806 807 808 808 807 806 804 802 801 801 801 801 800 800
798 798 801 804 808 812 814 811 806 803 802 800 799 798 798 799 798 797 797 799 801 801 802 803 807 809 809 810 812 813 814 815 816 816 817 818 818 818 818 818 818 818 818 817 817 816 815 815 815 815 815 814 814 814 813 813 812 811 812 812 812 811 810 809 808 807 807 807 807 807 807 807 807 807 807 808 807 806 805 804 802 801 801 801 801 801
795 793 794 799 806 809 807 804 803 803 802 799 798 798 798 798 798 798 798 799 801 802 802 804 807 809 809 811 812 812 814 815 815 816 817 818 818 819 818 818 819 819 818 818 818 817 817 816 816 816 816 816 815 815 814 814 813 813 814 814 813 813 812 811 810 809 809 809 808 809 809 808 808 808 808 808 808 807 806 806 804 803 802 801 801 802
793 792 795 800 806 809 810 807 804 804 803 801 799 799 798 798 799 799 799 800 801 802 803 804 806 808 810 811 811 812 814 814 815 816 817 817 819 819 819 819 819 819 819 819 819 819 818 818 817 817 817 817 817 816 816 815 815 814 815 814 814 814 813 812 811 811 810 810 810 810 810 810 810 810 809 809 809 809 808 807 807 805 804 802 803 803
793 791 797 804 807 809 809 806 805 805 804 801 800 800 799 800 800 800 800 801 801 802 803 805 806 809 810 811 812 813 814 814 815 815 816 817 818 818 819 820 820 820 820 820 819 819 819 818 818 818 818 817 817 817 817 816 816 815 815 815 815 815 814 813 813 812 812 811 811 811 811 812 812 812 812 812 811 810 810 809 809 808 806 805 805 806
792 792 799 805 809 811 811 808 807 808 807 804 802 801 799 800 801 801 802 802 802 803 804 806 807 808 809 811 812 813 814 815 815 815 816 817 817 817 818 819 819 820 821 820 820 820 819 819 819 818 818 818 818 818 818 817 817 817 816 816 816 815 815 815 814 814 813 813 812 812 813 813 813 814 814 814 814 813 812 812 811 810 809 808 808 808
792 796 802 807 811 813 809 803 803 806 806 804 801 799 800 800 800 802 803 803 803 804 805 806 807 808 809 810 811 812 814 814 815 815 816 816 816 817 817 818 819 820 820 820 821 821 820 820 820 819 819 819 819 819 819 818 818 818 817 817 817 816 816 816 816 815 815 814 814 814 814 814 815 815 816 816 816 816 816 815 814 813 812 811 810 811
789 793 797 799 802 802 797 795 796 797 799 800 798 798 800 800 800 802 803 804 804 805 805 806 808 809 810 810 811 812 813 813 814 815 816 816 816 817 817 818 818 819 819 820 821 821 822 822 821 820 820 820 820 820 819 819 818 818 818 818 818 818 818 818 817 817 817 816 816 816 816 816 816 817 817 818 818 818 818 818 817 816 815 814 814 814